| time (UTC) | temp C | wind direction | speed KPH | gust KPH | rain 1hr cm | rain 24hr cm | rain mn cm | humidity % | barometer mb |
| 20260505214254 | 15 | 287 | 6.4 | 16.1 | 1.19 | 0.30 | 0.30 | 86 | 1006.9 |
| 20260505213750 | 15 | 286 | 9.7 | 12.9 | 1.07 | 0.20 | 0.20 | 84 | 1006.7 |
| 20260505213249 | 16 | 293 | 8.0 | 11.3 | 0.30 | 0.05 | 0.05 | 81 | 1006.8 |
| 20260505212743 | 18 | 266 | 6.4 | 22.5 | 0.13 | 0.03 | 0.03 | 75 | 1006.5 |
| 20260505212241 | 21 | 223 | 12.9 | 17.7 | 0.00 | 0.00 | 0.00 | 55 | 1005.9 |
| 20260505211738 | 21 | 184 | 6.4 | 16.1 | 0.00 | 0.00 | 0.00 | 55 | 1005.7 |
| 20260505211236 | 21 | 221 | 9.7 | 14.5 | 0.00 | 0.00 | 0.00 | 54 | 1005.7 |
| 20260505210731 | 21 | 189 | 8.0 | 12.9 | 0.00 | 0.00 | 0.00 | 54 | 1005.5 |
| 20260505210228 | 21 | 214 | 12.9 | 14.5 | 0.00 | 0.00 | 0.00 | 54 | 1005.8 |
| 20260505205726 | 21 | 175 | 8.0 | 9.7 | 0.00 | 0.00 | 0.00 | 54 | 1005.5 |
| 20260505205224 | 21 | 152 | 6.4 | 12.9 | 0.00 | 0.00 | 0.00 | 54 | 1005.6 |
| 20260505204720 | 21 | 211 | 6.4 | 6.4 | 0.00 | 0.00 | 0.00 | 56 | 1005.9 |
| 20260505204218 | 21 | 216 | 6.4 | 9.7 | 0.00 | 0.00 | 0.00 | 55 | 1006.1 |
| 20260505203715 | 21 | 228 | 9.7 | 14.5 | 0.00 | 0.00 | 0.00 | 55 | 1006.1 |
| 20260505203212 | 21 | 220 | 4.8 | 6.4 | 0.00 | 0.00 | 0.00 | 55 | 1006.1 |
| 20260505202708 | 21 | 188 | 6.4 | 12.9 | 0.00 | 0.00 | 0.00 | 55 | 1006.1 |
| 20260505202204 | 21 | 153 | 3.2 | 11.3 | 0.00 | 0.00 | 0.00 | 55 | 1006.2 |
| 20260505201700 | 21 | 248 | 6.4 | 11.3 | 0.00 | 0.00 | 0.00 | 54 | 1006.2 |
| 20260505201159 | 21 | 210 | 4.8 | 12.9 | 0.00 | 0.00 | 0.00 | 55 | 1006.2 |
| 20260505200656 | 21 | 177 | 6.4 | 20.9 | 0.00 | 0.00 | 0.00 | 55 | 1006.4 |
| 20260505200153 | 21 | 113 | 6.4 | 12.9 | 0.00 | 0.00 | 0.00 | 55 | 1006.3 |
| 20260505195649 | 21 | 192 | 14.5 | 20.9 | 0.00 | 0.00 | 0.00 | 54 | 1006.3 |
| 20260505195146 | 21 | 166 | 8.0 | 11.3 | 0.00 | 0.00 | 0.00 | 55 | 1006.4 |
| 20260505194643 | 21 | 218 | 6.4 | 17.7 | 0.00 | 0.00 | 0.00 | 55 | 1006.4 |
| 20260505194139 | 21 | 227 | 12.9 | 17.7 | 0.00 | 0.00 | 0.00 | 55 | 1006.5 |
| 20260505193636 | 21 | 185 | 3.2 | 6.4 | 0.00 | 0.00 | 0.00 | 56 | 1006.6 |
| 20260505193133 | 21 | 223 | 6.4 | 14.5 | 0.00 | 0.00 | 0.00 | 55 | 1006.7 |
| 20260505192632 | 21 | 216 | 6.4 | 9.7 | 0.00 | 0.00 | 0.00 | 55 | 1006.7 |
| 20260505192129 | 21 | 221 | 11.3 | 14.5 | 0.00 | 0.00 | 0.00 | 54 | 1006.8 |
| 20260505191628 | 21 | 194 | 8.0 | 9.7 | 0.00 | 0.00 | 0.00 | 55 | 1006.9 |
| 20260505191125 | 21 | 230 | 4.8 | 12.9 | 0.00 | 0.00 | 0.00 | 54 | 1007.1 |
| 20260505190621 | 21 | 203 | 9.7 | 12.9 | 0.00 | 0.00 | 0.00 | 55 | 1006.9 |
| 20260505190116 | 21 | 208 | 3.2 | 11.3 | 0.00 | 0.00 | 0.00 | 55 | 1006.8 |
| 20260505185613 | 21 | 203 | 3.2 | 9.7 | 0.00 | 0.00 | 0.00 | 55 | 1007.1 |
| 20260505185109 | 21 | 284 | 3.2 | 12.9 | 0.00 | 0.00 | 0.00 | 55 | 1007.3 |
| 20260505184606 | 20 | 279 | 6.4 | 12.9 | 0.00 | 0.00 | 0.00 | 55 | 1007.2 |
| 20260505184103 | 20 | 164 | 4.8 | 12.9 | 0.00 | 0.00 | 0.00 | 55 | 1007.4 |
| 20260505183559 | 20 | 227 | 3.2 | 9.7 | 0.00 | 0.00 | 0.00 | 56 | 1007.4 |
| 20260505183057 | 20 | 225 | 11.3 | 16.1 | 0.00 | 0.00 | 0.00 | 55 | 1007.3 |
| 20260505182553 | 20 | 269 | 3.2 | 11.3 | 0.00 | 0.00 | 0.00 | 56 | 1007.2 |
| 20260505182050 | 20 | 190 | 3.2 | 9.7 | 0.00 | 0.00 | 0.00 | 56 | 1007.3 |
| 20260505181547 | 20 | 221 | 6.4 | 16.1 | 0.00 | 0.00 | 0.00 | 56 | 1007.3 |
| 20260505181044 | 20 | 193 | 6.4 | 11.3 | 0.00 | 0.00 | 0.00 | 56 | 1007.3 |
| 20260505180540 | 20 | 255 | 6.4 | 11.3 | 0.00 | 0.00 | 0.00 | 56 | 1007.1 |
| 20260505180038 | 20 | 198 | 3.2 | 9.7 | 0.00 | 0.00 | 0.00 | 56 | 1007.1 |
| 20260505175537 | 21 | 238 | 4.8 | 6.4 | 0.00 | 0.00 | 0.00 | 55 | 1007.0 |
| 20260505175034 | 21 | 231 | 8.0 | 11.3 | 0.00 | 0.00 | 0.00 | 54 | 1007.0 |
| 20260505174531 | 21 | 210 | 4.8 | 12.9 | 0.00 | 0.00 | 0.00 | 54 | 1007.0 |
| 20260505174027 | 21 | 232 | 8.0 | 12.9 | 0.00 | 0.00 | 0.00 | 55 | 1007.2 |
| 20260505173525 | 21 | 233 | 6.4 | 12.9 | 0.00 | 0.00 | 0.00 | 55 | 1007.3 |
| 20260505173021 | 21 | 230 | 8.0 | 17.7 | 0.00 | 0.00 | 0.00 | 54 | 1007.2 |
| 20260505172519 | 21 | 236 | 4.8 | 9.7 | 0.00 | 0.00 | 0.00 | 54 | 1007.2 |
| 20260505172015 | 21 | 217 | 3.2 | 4.8 | 0.00 | 0.00 | 0.00 | 55 | 1007.5 |
| 20260505171511 | 21 | 311 | 12.9 | 20.9 | 0.00 | 0.00 | 0.00 | 53 | 1007.4 |
| 20260505171008 | 21 | 275 | 11.3 | 14.5 | 0.00 | 0.00 | 0.00 | 53 | 1007.3 |
| 20260505170504 | 21 | 252 | 4.8 | 14.5 | 0.00 | 0.00 | 0.00 | 52 | 1007.2 |
| 20260505165959 | 21 | 228 | 9.7 | 20.9 | 0.00 | 0.00 | 0.00 | 52 | 1007.2 |
| 20260505165455 | 22 | 327 | 9.7 | 17.7 | 0.00 | 0.00 | 0.00 | 51 | 1007.3 |
| 20260505164951 | 22 | 170 | 6.4 | 11.3 | 0.00 | 0.00 | 0.00 | 50 | 1007.3 |
| 20260505164448 | 22 | 234 | 9.7 | 20.9 | 0.00 | 0.00 | 0.00 | 50 | 1007.3 |
| 20260505163946 | 22 | 190 | 4.8 | 6.4 | 0.00 | 0.00 | 0.00 | 51 | 1007.2 |
| 20260505163444 | 21 | 220 | 6.4 | 20.9 | 0.00 | 0.00 | 0.00 | 52 | 1007.2 |
| 20260505162944 | 21 | 226 | 4.8 | 24.1 | 0.00 | 0.00 | 0.00 | 51 | 1007.3 |
| 20260505162439 | 21 | 226 | 6.4 | 12.9 | 0.00 | 0.00 | 0.00 | 53 | 1007.5 |
| 20260505161936 | 21 | 230 | 12.9 | 17.7 | 0.00 | 0.00 | 0.00 | 52 | 1007.7 |
| 20260505161432 | 21 | 197 | 12.9 | 17.7 | 0.00 | 0.00 | 0.00 | 52 | 1007.6 |
| 20260505160930 | 21 | 252 | 9.7 | 17.7 | 0.00 | 0.00 | 0.00 | 51 | 1007.8 |
| 20260505160428 | 21 | 178 | 6.4 | 11.3 | 0.00 | 0.00 | 0.00 | 53 | 1007.5 |
| 20260505152904 | 20 | 216 | 6.4 | 12.9 | 0.00 | 0.00 | 0.00 | 57 | 1007.5 |
| 20260505152401 | 20 | 221 | 9.7 | 11.3 | 0.00 | 0.00 | 0.00 | 58 | 1007.4 |
| 20260505151855 | 20 | 221 | 9.7 | 14.5 | 0.00 | 0.00 | 0.00 | 58 | 1007.4 |
| 20260505151352 | 19 | 185 | 4.8 | 6.4 | 0.00 | 0.00 | 0.00 | 60 | 1007.2 |
| 20260505150849 | 18 | 249 | 1.6 | 6.4 | 0.00 | 0.00 | 0.00 | 62 | 1007.2 |
| 20260505150347 | 18 | 216 | 6.4 | 6.4 | 0.00 | 0.00 | 0.00 | 62 | 1007.4 |
| 20260505140310 | 17 | 227 | 9.7 | 9.7 | 0.00 | 0.00 | 0.00 | 67 | 1006.8 |
| 20260505130234 | 16 | 212 | 4.8 | 4.8 | 0.00 | 0.00 | 0.00 | 73 | 1007.0 |
| 20260505124724 | 16 | 183 | 6.4 | 9.7 | 0.00 | 0.00 | 0.00 | 73 | 1006.9 |
| 20260505124221 | 16 | 199 | 3.2 | 4.8 | 0.00 | 0.00 | 0.00 | 73 | 1006.8 |
| 20260505123717 | 16 | 244 | 3.2 | 4.8 | 0.00 | 0.00 | 0.00 | 73 | 1006.9 |
| 20260505123214 | 15 | 197 | 3.2 | 4.8 | 0.00 | 0.00 | 0.00 | 73 | 1006.8 |
| 20260505122710 | 15 | 227 | 8.0 | 9.7 | 0.00 | 0.00 | 0.00 | 73 | 1006.7 |
| 20260505122208 | 15 | 180 | 3.2 | 4.8 | 0.00 | 0.00 | 0.00 | 73 | 1006.4 |
| 20260505121704 | 15 | 180 | 3.2 | 6.4 | 0.00 | 0.00 | 0.00 | 73 | 1006.4 |
| 20260505121201 | 15 | 217 | 4.8 | 4.8 | 0.00 | 0.00 | 0.00 | 73 | 1006.1 |
| 20260505120658 | 15 | 98 | 0.0 | 4.8 | 0.00 | 0.00 | 0.00 | 73 | 1006.2 |
| 20260505120154 | 15 | 176 | 4.8 | 6.4 | 0.00 | 0.00 | 0.00 | 73 | 1005.9 |
| 20260505115652 | 15 | 212 | 4.8 | 6.4 | 0.00 | 0.00 | 0.00 | 73 | 1005.9 |
| 20260505115151 | 15 | 140 | 3.2 | 4.8 | 0.00 | 0.00 | 0.00 | 73 | 1006.1 |
| 20260505114648 | 15 | 228 | 4.8 | 4.8 | 0.00 | 0.00 | 0.00 | 73 | 1005.9 |
| 20260505114144 | 15 | 207 | 6.4 | 9.7 | 0.00 | 0.00 | 0.00 | 72 | 1005.9 |
| 20260505113640 | 15 | 182 | 1.6 | 4.8 | 0.00 | 0.00 | 0.00 | 72 | 1006.1 |
| 20260505113137 | 15 | 172 | 4.8 | 6.4 | 0.00 | 0.00 | 0.00 | 72 | 1006.3 |
| 20260505112633 | 15 | 190 | 3.2 | 4.8 | 0.00 | 0.00 | 0.00 | 72 | 1006.1 |
| 20260505112132 | 16 | 144 | 1.6 | 3.2 | 0.00 | 0.00 | 0.00 | 71 | 1006.4 |
| 20260505111631 | 16 | 316 | 1.6 | 4.8 | 0.00 | 0.00 | 0.00 | 71 | 1006.3 |
| 20260505111127 | 16 | 98 | 0.0 | 3.2 | 0.00 | 0.00 | 0.00 | 70 | 1006.4 |
| 20260505110624 | 16 | 273 | 8.0 | 11.3 | 0.00 | 0.00 | 0.00 | 70 | 1006.5 |
| 20260505110121 | 16 | 208 | 3.2 | 11.3 | 0.00 | 0.00 | 0.00 | 69 | 1006.6 |
| 20260505102057 | 17 | 234 | 6.4 | 11.3 | 0.00 | 0.00 | 0.00 | 65 | 1006.2 |
| 20260505101555 | 17 | 219 | 3.2 | 4.8 | 0.00 | 0.00 | 0.00 | 65 | 1006.3 |
| 20260505101051 | 17 | 215 | 3.2 | 9.7 | 0.00 | 0.00 | 0.00 | 64 | 1006.4 |
| 20260505100548 | 17 | 265 | 3.2 | 6.4 | 0.00 | 0.00 | 0.00 | 64 | 1006.1 |
| 20260505100045 | 17 | 161 | 3.2 | 6.4 | 0.00 | 0.00 | 0.00 | 64 | 1006.3 |
| 20260505095541 | 17 | 286 | 3.2 | 6.4 | 0.00 | 0.00 | 0.00 | 64 | 1006.2 |
| 20260505095037 | 17 | 242 | 3.2 | 3.2 | 0.00 | 0.00 | 0.00 | 63 | 1006.1 |
| 20260505094534 | 17 | 221 | 1.6 | 4.8 | 0.00 | 0.00 | 0.00 | 63 | 1006.1 |
| 20260505094030 | 17 | 75 | 3.2 | 4.8 | 0.00 | 0.00 | 0.00 | 63 | 1006.1 |
| 20260505093527 | 17 | 223 | 1.6 | 6.4 | 0.00 | 0.00 | 0.00 | 62 | 1006.2 |
| 20260505093024 | 17 | 142 | 1.6 | 6.4 | 0.00 | 0.00 | 0.00 | 62 | 1005.8 |
| 20260505092521 | 17 | 264 | 6.4 | 9.7 | 0.00 | 0.00 | 0.00 | 61 | 1006.1 |
| 20260505092020 | 17 | 275 | 3.2 | 12.9 | 0.00 | 0.00 | 0.00 | 61 | 1005.9 |
| 20260505091516 | 17 | 219 | 4.8 | 6.4 | 0.00 | 0.00 | 0.00 | 61 | 1005.9 |
| 20260505091014 | 17 | 246 | 4.8 | 11.3 | 0.00 | 0.00 | 0.00 | 60 | 1005.8 |
| 20260505090512 | 17 | 227 | 6.4 | 6.4 | 0.00 | 0.00 | 0.00 | 60 | 1005.9 |
| 20260505090010 | 17 | 237 | 6.4 | 9.7 | 0.00 | 0.00 | 0.00 | 59 | 1005.9 |
| 20260505085508 | 18 | 203 | 6.4 | 6.4 | 0.00 | 0.00 | 0.00 | 59 | 1005.8 |
| 20260505085006 | 18 | 229 | 4.8 | 9.7 | 0.00 | 0.00 | 0.00 | 59 | 1005.7 |
| 20260505084504 | 18 | 197 | 4.8 | 11.3 | 0.00 | 0.00 | 0.00 | 58 | 1005.8 |
| 20260505084001 | 18 | 247 | 3.2 | 6.4 | 0.00 | 0.00 | 0.00 | 58 | 1005.5 |
| 20260505083458 | 18 | 259 | 6.4 | 14.5 | 0.00 | 0.00 | 0.00 | 57 | 1005.3 |
| 20260505082954 | 18 | 239 | 8.0 | 14.5 | 0.00 | 0.00 | 0.00 | 56 | 1005.3 |
| 20260505082450 | 18 | 263 | 12.9 | 16.1 | 0.00 | 0.00 | 0.00 | 56 | 1005.3 |
| 20260505081947 | 18 | 213 | 4.8 | 6.4 | 0.00 | 0.00 | 0.00 | 58 | 1005.1 |
| 20260505081444 | 18 | 295 | 3.2 | 11.3 | 0.00 | 0.00 | 0.00 | 58 | 1005.1 |
| 20260505080940 | 18 | 172 | 4.8 | 9.7 | 0.00 | 0.00 | 0.00 | 58 | 1004.9 |
| 20260505080437 | 18 | 238 | 3.2 | 4.8 | 0.00 | 0.00 | 0.00 | 59 | 1005.0 |
| 20260505075932 | 18 | 201 | 9.7 | 16.1 | 0.00 | 0.00 | 0.00 | 59 | 1004.5 |
| 20260505075429 | 18 | 187 | 6.4 | 11.3 | 0.00 | 0.00 | 0.00 | 59 | 1004.6 |
| 20260505074927 | 18 | 209 | 4.8 | 9.7 | 0.00 | 0.00 | 0.00 | 59 | 1004.5 |
| 20260505074424 | 18 | 211 | 4.8 | 6.4 | 0.00 | 0.00 | 0.00 | 59 | 1004.6 |
| 20260505073921 | 18 | 151 | 6.4 | 9.7 | 0.00 | 0.00 | 0.00 | 60 | 1004.7 |
| 20260505073419 | 18 | 235 | 6.4 | 11.3 | 0.00 | 0.00 | 0.00 | 59 | 1004.6 |
| 20260505072916 | 18 | 197 | 3.2 | 9.7 | 0.00 | 0.00 | 0.00 | 60 | 1004.6 |
| 20260505072411 | 18 | 206 | 4.8 | 6.4 | 0.00 | 0.00 | 0.00 | 59 | 1004.6 |
| 20260505071908 | 18 | 200 | 3.2 | 12.9 | 0.00 | 0.00 | 0.00 | 59 | 1004.6 |
| 20260505071404 | 18 | 209 | 4.8 | 6.4 | 0.00 | 0.00 | 0.00 | 59 | 1004.7 |
| 20260505070903 | 18 | 194 | 3.2 | 11.3 | 0.00 | 0.00 | 0.00 | 58 | 1004.5 |
| 20260505070358 | 18 | 165 | 4.8 | 9.7 | 0.00 | 0.00 | 0.00 | 59 | 1004.6 |
| 20260505065854 | 18 | 160 | 4.8 | 6.4 | 0.00 | 0.00 | 0.00 | 59 | 1004.5 |
| 20260505065351 | 18 | 190 | 1.6 | 6.4 | 0.00 | 0.00 | 0.00 | 59 | 1004.5 |
| 20260505064848 | 18 | 212 | 4.8 | 6.4 | 0.00 | 0.00 | 0.00 | 59 | 1004.6 |
| 20260505064345 | 18 | 157 | 1.6 | 6.4 | 0.00 | 0.00 | 0.00 | 59 | 1004.5 |
| 20260505063843 | 18 | 216 | 4.8 | 6.4 | 0.00 | 0.00 | 0.00 | 59 | 1004.5 |
| 20260505063339 | 18 | 208 | 4.8 | 9.7 | 0.00 | 0.00 | 0.00 | 59 | 1004.3 |
| 20260505062836 | 18 | 208 | 3.2 | 9.7 | 0.00 | 0.00 | 0.00 | 59 | 1004.3 |
| 20260505062333 | 18 | 206 | 3.2 | 6.4 | 0.00 | 0.00 | 0.00 | 59 | 1004.2 |
| 20260505061830 | 18 | 167 | 4.8 | 9.7 | 0.00 | 0.00 | 0.00 | 59 | 1004.3 |
| 20260505061328 | 18 | 183 | 4.8 | 6.4 | 0.00 | 0.00 | 0.00 | 59 | 1004.4 |
| 20260505060825 | 18 | 176 | 3.2 | 6.4 | 0.00 | 0.00 | 0.00 | 58 | 1004.4 |
| 20260505060322 | 18 | 239 | 6.4 | 9.7 | 0.00 | 0.00 | 0.00 | 58 | 1004.4 |
| 20260505055818 | 18 | 221 | 6.4 | 12.9 | 0.00 | 0.00 | 0.00 | 58 | 1004.3 |
| 20260505055314 | 18 | 152 | 3.2 | 6.4 | 0.00 | 0.00 | 0.00 | 59 | 1004.5 |
| 20260505054812 | 18 | 148 | 3.2 | 6.4 | 0.00 | 0.00 | 0.00 | 59 | 1004.4 |
| 20260505054308 | 18 | 178 | 3.2 | 9.7 | 0.00 | 0.00 | 0.00 | 59 | 1004.5 |
| 20260505053807 | 18 | 163 | 3.2 | 6.4 | 0.00 | 0.00 | 0.00 | 59 | 1004.7 |
| 20260505053303 | 18 | 189 | 3.2 | 4.8 | 0.00 | 0.00 | 0.00 | 59 | 1004.9 |
| 20260505052800 | 18 | 158 | 3.2 | 6.4 | 0.00 | 0.00 | 0.00 | 58 | 1004.7 |
| 20260505052257 | 18 | 215 | 6.4 | 6.4 | 0.00 | 0.00 | 0.00 | 59 | 1004.9 |
| 20260505051754 | 18 | 162 | 4.8 | 4.8 | 0.00 | 0.00 | 0.00 | 59 | 1004.7 |
| 20260505051252 | 18 | 204 | 3.2 | 4.8 | 0.00 | 0.00 | 0.00 | 59 | 1005.0 |
| 20260505050750 | 18 | 180 | 3.2 | 4.8 | 0.00 | 0.00 | 0.00 | 58 | 1005.1 |
| 20260505050248 | 19 | 215 | 6.4 | 9.7 | 0.00 | 0.00 | 0.00 | 58 | 1005.1 |
| 20260505041718 | 20 | 193 | 4.8 | 9.7 | 0.00 | 0.00 | 0.00 | 56 | 1005.0 |
| 20260505041215 | 20 | 111 | 3.2 | 4.8 | 0.00 | 0.00 | 0.00 | 56 | 1005.1 |
| 20260505040712 | 20 | 181 | 4.8 | 6.4 | 0.00 | 0.00 | 0.00 | 56 | 1005.2 |
| 20260505040209 | 20 | 107 | 3.2 | 4.8 | 0.00 | 0.00 | 0.00 | 56 | 1005.1 |
| 20260505035706 | 20 | 92 | 3.2 | 6.4 | 0.00 | 0.00 | 0.00 | 56 | 1005.2 |
| 20260505035202 | 20 | 135 | 1.6 | 3.2 | 0.00 | 0.00 | 0.00 | 56 | 1005.1 |
| 20260505034659 | 20 | 159 | 3.2 | 6.4 | 0.00 | 0.00 | 0.00 | 56 | 1005.2 |
| 20260505034156 | 20 | 217 | 3.2 | 6.4 | 0.00 | 0.00 | 0.00 | 56 | 1005.1 |
| 20260505033652 | 20 | 198 | 3.2 | 4.8 | 0.00 | 0.00 | 0.00 | 56 | 1005.0 |
| 20260505033151 | 20 | 162 | 4.8 | 11.3 | 0.00 | 0.00 | 0.00 | 56 | 1004.9 |
| 20260505032648 | 20 | 157 | 1.6 | 4.8 | 0.00 | 0.00 | 0.00 | 57 | 1004.9 |
| 20260505032144 | 20 | 159 | 3.2 | 4.8 | 0.00 | 0.00 | 0.00 | 56 | 1004.7 |
| 20260505031642 | 20 | 189 | 3.2 | 3.2 | 0.00 | 0.00 | 0.00 | 56 | 1005.0 |
| 20260505031138 | 20 | 169 | 4.8 | 4.8 | 0.00 | 0.00 | 0.00 | 56 | 1004.7 |
| 20260505030635 | 20 | 140 | 3.2 | 6.4 | 0.00 | 0.00 | 0.00 | 56 | 1005.0 |
| 20260505030130 | 20 | 188 | 3.2 | 6.4 | 0.00 | 0.00 | 0.00 | 56 | 1004.6 |
| 20260505025627 | 20 | 191 | 3.2 | 9.7 | 0.00 | 0.00 | 0.00 | 56 | 1004.9 |
| 20260505025126 | 20 | 114 | 1.6 | 4.8 | 0.00 | 0.00 | 0.00 | 56 | 1004.7 |
| 20260505024622 | 20 | 182 | 3.2 | 4.8 | 0.00 | 0.00 | 0.00 | 56 | 1004.7 |
| 20260505024120 | 20 | 226 | 6.4 | 6.4 | 0.00 | 0.00 | 0.00 | 56 | 1004.7 |
| 20260505023617 | 20 | 205 | 8.0 | 9.7 | 0.00 | 0.00 | 0.00 | 55 | 1004.6 |
| 20260505023114 | 20 | 160 | 1.6 | 6.4 | 0.00 | 0.00 | 0.00 | 55 | 1004.7 |
| 20260505022612 | 20 | 198 | 3.2 | 6.4 | 0.00 | 0.00 | 0.00 | 56 | 1004.9 |
| 20260505022108 | 20 | 199 | 3.2 | 4.8 | 0.00 | 0.00 | 0.00 | 57 | 1004.7 |
| 20260505021605 | 20 | 176 | 3.2 | 3.2 | 0.00 | 0.00 | 0.00 | 56 | 1004.6 |
| 20260505021102 | 20 | 191 | 0.0 | 3.2 | 0.00 | 0.00 | 0.00 | 56 | 1004.6 |
| 20260505020602 | 20 | 154 | 1.6 | 3.2 | 0.00 | 0.00 | 0.00 | 57 | 1004.6 |
| 20260505020059 | 20 | 160 | 1.6 | 4.8 | 0.00 | 0.00 | 0.00 | 57 | 1004.6 |
| 20260505015556 | 20 | 150 | 1.6 | 4.8 | 0.00 | 0.00 | 0.00 | 57 | 1004.6 |
| 20260505015053 | 20 | 154 | 3.2 | 3.2 | 0.00 | 0.00 | 0.00 | 57 | 1004.5 |
| 20260505014549 | 20 | 154 | 0.0 | 3.2 | 0.00 | 0.00 | 0.00 | 57 | 1004.6 |
| 20260505014047 | 20 | 112 | 0.0 | 3.2 | 0.00 | 0.00 | 0.00 | 58 | 1004.4 |
| 20260505013544 | 20 | 111 | 1.6 | 3.2 | 0.00 | 0.00 | 0.00 | 57 | 1004.3 |
| 20260505013041 | 20 | 108 | 0.0 | 1.6 | 0.00 | 0.00 | 0.00 | 57 | 1004.5 |
| 20260505012539 | 20 | 129 | 1.6 | 3.2 | 0.00 | 0.00 | 0.00 | 56 | 1004.4 |
| 20260505012036 | 20 | 132 | 1.6 | 3.2 | 0.00 | 0.00 | 0.00 | 56 | 1004.1 |
| 20260505011531 | 20 | 101 | 1.6 | 1.6 | 0.00 | 0.00 | 0.00 | 55 | 1004.3 |
| 20260505011029 | 20 | 140 | 1.6 | 3.2 | 0.00 | 0.00 | 0.00 | 55 | 1004.2 |
| 20260505010524 | 20 | 94 | 0.0 | 1.6 | 0.00 | 0.00 | 0.00 | 55 | 1004.2 |
| 20260505010021 | 20 | 148 | 1.6 | 3.2 | 0.00 | 0.00 | 0.00 | 54 | 1004.2 |
| 20260505005517 | 20 | 201 | 1.6 | 3.2 | 0.00 | 0.00 | 0.00 | 54 | 1004.3 |
| 20260505005015 | 20 | 112 | 1.6 | 3.2 | 0.00 | 0.00 | 0.00 | 53 | 1004.2 |
| 20260505004512 | 21 | 140 | 0.0 | 3.2 | 0.00 | 0.00 | 0.00 | 52 | 1004.2 |
| 20260505004008 | 21 | 177 | 3.2 | 6.4 | 0.00 | 0.00 | 0.00 | 52 | 1004.3 |
| 20260505003505 | 21 | 105 | 1.6 | 4.8 | 0.00 | 0.00 | 0.00 | 52 | 1004.3 |
| 20260505003002 | 21 | 172 | 3.2 | 3.2 | 0.00 | 0.00 | 0.00 | 51 | 1004.3 |
| 20260505002458 | 21 | 133 | 0.0 | 3.2 | 0.00 | 0.00 | 0.00 | 51 | 1004.2 |
| 20260505001956 | 21 | 157 | 1.6 | 3.2 | 0.00 | 0.00 | 0.00 | 50 | 1004.3 |
| 20260505001453 | 21 | 180 | 1.6 | 6.4 | 0.00 | 0.00 | 0.00 | 50 | 1004.2 |
| 20260505000950 | 21 | 187 | 1.6 | 3.2 | 0.00 | 0.00 | 0.00 | 50 | 1004.3 |
| 20260505000448 | 21 | 141 | 4.8 | 6.4 | 0.00 | 0.00 | 0.00 | 49 | 1004.2 |
| 20260504235945 | 22 | 190 | 4.8 | 9.7 | 0.00 | 0.00 | 0.00 | 48 | 1004.1 |
| 20260504235442 | 22 | 156 | 4.8 | 9.7 | 0.00 | 0.00 | 0.00 | 48 | 1004.2 |
| 20260504234938 | 22 | 222 | 3.2 | 4.8 | 0.00 | 0.00 | 0.00 | 48 | 1004.3 |
| 20260504234436 | 22 | 226 | 3.2 | 9.7 | 0.00 | 0.00 | 0.00 | 47 | 1004.3 |
| 20260504233932 | 22 | 215 | 6.4 | 11.3 | 0.00 | 0.00 | 0.00 | 48 | 1004.5 |
| 20260504233428 | 22 | 223 | 6.4 | 6.4 | 0.00 | 0.00 | 0.00 | 48 | 1004.4 |
| 20260504232925 | 22 | 183 | 3.2 | 9.7 | 0.00 | 0.00 | 0.00 | 48 | 1004.3 |
| 20260504232422 | 22 | 211 | 4.8 | 4.8 | 0.00 | 0.00 | 0.00 | 48 | 1004.3 |
| 20260504231919 | 22 | 83 | 0.0 | 4.8 | 0.00 | 0.00 | 0.00 | 49 | 1004.4 |
| 20260504231415 | 22 | 165 | 4.8 | 11.3 | 0.00 | 0.00 | 0.00 | 48 | 1004.4 |
| 20260504230912 | 22 | 221 | 3.2 | 11.3 | 0.00 | 0.00 | 0.00 | 48 | 1004.3 |
| 20260504230409 | 22 | 195 | 8.0 | 11.3 | 0.00 | 0.00 | 0.00 | 48 | 1004.5 |
| 20260504225908 | 21 | 207 | 6.4 | 14.5 | 0.00 | 0.00 | 0.00 | 48 | 1004.6 |
| 20260504225404 | 22 | 93 | 3.2 | 6.4 | 0.00 | 0.00 | 0.00 | 48 | 1004.7 |
| 20260504224902 | 22 | 211 | 6.4 | 9.7 | 0.00 | 0.00 | 0.00 | 48 | 1005.0 |
| 20260504224358 | 22 | 213 | 6.4 | 11.3 | 0.00 | 0.00 | 0.00 | 48 | 1005.1 |
| 20260504223855 | 21 | 244 | 8.0 | 14.5 | 0.00 | 0.00 | 0.00 | 48 | 1004.9 |
| 20260504223351 | 22 | 222 | 9.7 | 12.9 | 0.00 | 0.00 | 0.00 | 48 | 1005.3 |
| 20260504222847 | 21 | 218 | 4.8 | 6.4 | 0.00 | 0.00 | 0.00 | 49 | 1005.1 |
| 20260504222344 | 22 | 166 | 3.2 | 6.4 | 0.00 | 0.00 | 0.00 | 49 | 1005.3 |
| 20260504221843 | 21 | 179 | 3.2 | 6.4 | 0.00 | 0.00 | 0.00 | 49 | 1005.2 |
| 20260504221339 | 21 | 223 | 4.8 | 9.7 | 0.00 | 0.00 | 0.00 | 50 | 1005.4 |
| 20260504220837 | 21 | 228 | 4.8 | 9.7 | 0.00 | 0.00 | 0.00 | 51 | 1005.2 |
| 20260504220333 | 21 | 262 | 11.3 | 16.1 | 0.00 | 0.00 | 0.00 | 50 | 1005.3 |
| 20260504215830 | 22 | 197 | 6.4 | 6.4 | 0.00 | 0.00 | 0.00 | 49 | 1005.2 |
| 20260504215326 | 21 | 219 | 4.8 | 16.1 | 0.00 | 0.00 | 0.00 | 49 | 1005.5 |
| 20260504214823 | 21 | 260 | 14.5 | 20.9 | 0.00 | 0.00 | 0.00 | 48 | 1005.4 |